KB7STN Weather Reports


Display with metric or nautical units.
time (UTC)temp
F
wind
direction
speed
MPH
gust
MPH
rain 1hr
in
rain 24hr
in
rain mn
in
humidity
%
barometer
mb
20260508235709 75 45 3.0 7.0 0.00 0.00 0.00 20 1003.3
20260508235209 75 36 2.0 5.0 0.00 0.00 0.00 21 1003.3
20260508234709 75 34 1.0 6.0 0.00 0.00 0.00 21 1003.4
20260508234209 75 34 2.0 6.0 0.00 0.00 0.00 21 1003.4
20260508233709 75 34 3.0 5.0 0.00 0.00 0.00 21 1003.4
20260508233209 75 89 3.0 9.0 0.00 0.00 0.00 21 1003.3
20260508232709 75 19 3.0 7.0 0.00 0.00 0.00 21 1003.3
20260508232209 75 48 3.0 8.0 0.00 0.00 0.00 21 1003.4
20260508231709 75 44 3.0 6.0 0.00 0.00 0.00 20 1003.4
20260508231209 75 166 3.0 7.0 0.00 0.00 0.00 22 1003.4
20260508230709 75 74 3.0 9.0 0.00 0.00 0.00 21 1003.4
20260508230209 75 0 3.0 8.0 0.00 0.00 0.00 21 1003.5
20260508225711 75 57 3.0 8.0 0.00 0.00 0.00 21 1003.6
20260508225209 75 46 3.0 6.0 0.00 0.00 0.00 21 1003.7
20260508224709 75 23 3.0 9.0 0.00 0.00 0.00 21 1003.7
20260508224209 75 54 3.0 8.0 0.00 0.00 0.00 21 1003.7
20260508223709 75 80 4.0 7.0 0.00 0.00 0.00 21 1003.9
20260508223209 75 44 4.0 10.0 0.00 0.00 0.00 21 1003.9
20260508222709 75 28 3.0 8.0 0.00 0.00 0.00 21 1003.9
20260508222209 75 68 3.0 9.0 0.00 0.00 0.00 21 1003.9
20260508221709 75 61 3.0 9.0 0.00 0.00 0.00 22 1004.0
20260508221209 75 59 3.0 8.0 0.00 0.00 0.00 22 1004.1
20260508220709 75 50 3.0 10.0 0.00 0.00 0.00 22 1004.2
20260508220209 74 231 2.0 6.0 0.00 0.00 0.00 22 1004.2
20260508215709 74 204 3.0 7.0 0.00 0.00 0.00 24 1004.2
20260508215209 74 43 3.0 10.0 0.00 0.00 0.00 22 1004.5
20260508214709 74 48 3.0 8.0 0.00 0.00 0.00 22 1004.5
20260508214209 74 39 3.0 8.0 0.00 0.00 0.00 23 1004.4
20260508213709 74 61 3.0 8.0 0.00 0.00 0.00 22 1004.6
20260508213209 73 52 3.0 5.0 0.00 0.00 0.00 22 1004.7
20260508212709 73 22 4.0 10.0 0.00 0.00 0.00 23 1004.7
20260508212209 73 56 3.0 9.0 0.00 0.00 0.00 23 1004.8
20260508211709 73 107 3.0 8.0 0.00 0.00 0.00 22 1004.7
20260508211209 73 169 3.0 9.0 0.00 0.00 0.00 23 1004.8
20260508210709 73 52 4.0 9.0 0.00 0.00 0.00 23 1004.9
20260508210209 73 24 5.0 11.0 0.00 0.00 0.00 23 1004.9
20260508205709 73 60 4.0 11.0 0.00 0.00 0.00 22 1005.0
20260508205209 73 19 3.0 10.0 0.00 0.00 0.00 24 1005.1
20260508204709 73 186 4.0 10.0 0.00 0.00 0.00 24 1005.1
20260508204209 73 100 4.0 11.0 0.00 0.00 0.00 24 1005.1
20260508203709 73 78 4.0 9.0 0.00 0.00 0.00 23 1005.2
20260508203209 73 63 4.0 12.0 0.00 0.00 0.00 23 1005.2
20260508202709 74 59 4.0 9.0 0.00 0.00 0.00 22 1005.2
20260508202210 74 11 3.0 8.0 0.00 0.00 0.00 22 1005.3
20260508201709 74 34 3.0 5.0 0.00 0.00 0.00 23 1005.3
20260508201210 74 66 3.0 7.0 0.00 0.00 0.00 23 1005.4
20260508200709 74 118 3.0 6.0 0.00 0.00 0.00 24 1005.5
20260508200210 74 121 2.0 9.0 0.00 0.00 0.00 23 1005.5
20260508195710 74 42 2.0 7.0 0.00 0.00 0.00 23 1005.5
20260508195210 75 318 2.0 5.0 0.00 0.00 0.00 23 1005.5
20260508194710 75 315 2.0 5.0 0.00 0.00 0.00 21 1005.5
20260508194210 74 315 2.0 7.0 0.00 0.00 0.00 25 1005.6
20260508193710 74 315 1.0 6.0 0.00 0.00 0.00 23 1005.5
20260508193210 74 314 2.0 7.0 0.00 0.00 0.00 23 1005.6
20260508192710 74 313 2.0 6.0 0.00 0.00 0.00 25 1005.7
20260508192210 74 313 2.0 5.0 0.00 0.00 0.00 22 1005.6
20260508191710 74 314 3.0 9.0 0.00 0.00 0.00 23 1005.6
20260508191210 74 311 2.0 8.0 0.00 0.00 0.00 23 1005.6
20260508190710 74 306 1.0 6.0 0.00 0.00 0.00 24 1005.6
20260508190210 73 307 1.0 8.0 0.00 0.00 0.00 23 1005.9
20260508185710 73 312 1.0 9.0 0.00 0.00 0.00 24 1005.9
20260508185210 73 311 2.0 5.0 0.00 0.00 0.00 27 1005.9
20260508184710 72 311 2.0 7.0 0.00 0.00 0.00 24 1006.0
20260508184210 73 284 3.0 9.0 0.00 0.00 0.00 24 1006.1
20260508183710 73 285 2.0 9.0 0.00 0.00 0.00 23 1006.1
20260508183210 73 315 3.0 5.0 0.00 0.00 0.00 25 1006.1
20260508182710 72 332 3.0 10.0 0.00 0.00 0.00 25 1006.2
20260508182210 72 327 2.0 8.0 0.00 0.00 0.00 26 1006.2
20260508181710 71 5 2.0 6.0 0.00 0.00 0.00 24 1006.3
20260508181210 71 24 2.0 7.0 0.00 0.00 0.00 25 1006.4
20260508180710 71 36 1.0 9.0 0.00 0.00 0.00 25 1006.4
20260508180210 70 355 1.0 6.0 0.00 0.00 0.00 27 1006.3
20260508175710 70 18 2.0 7.0 0.00 0.00 0.00 26 1006.5
20260508175210 71 328 2.0 11.0 0.00 0.00 0.00 24 1006.6
20260508174710 71 325 1.0 5.0 0.00 0.00 0.00 27 1006.6
20260508174210 70 15 1.0 4.0 0.00 0.00 0.00 26 1006.6
20260508173710 70 11 2.0 9.0 0.00 0.00 0.00 26 1006.7
20260508173210 69 67 1.0 9.0 0.00 0.00 0.00 27 1006.7
20260508172710 69 34 0.0 4.0 0.00 0.00 0.00 29 1006.7
20260508172210 69 57 0.0 2.0 0.00 0.00 0.00 31 1006.8
20260508171710 69 57 0.0 7.0 0.00 0.00 0.00 32 1006.8
20260508171210 69 70 0.0 3.0 0.00 0.00 0.00 30 1006.8
20260508170710 69 70 0.0 3.0 0.00 0.00 0.00 32 1006.8
20260508170210 69 71 0.0 3.0 0.00 0.00 0.00 32 1006.6
20260508165710 69 71 0.0 4.0 0.00 0.00 0.00 31 1006.6
20260508165210 69 71 0.0 4.0 0.00 0.00 0.00 32 1006.6
20260508164710 69 71 0.0 1.0 0.00 0.00 0.00 33 1006.5
20260508164210 69 71 0.0 2.0 0.00 0.00 0.00 33 1006.5
20260508163710 68 70 0.0 2.0 0.00 0.00 0.00 34 1006.5
20260508163210 68 70 0.0 2.0 0.00 0.00 0.00 33 1006.5
20260508162710 68 70 0.0 2.0 0.00 0.00 0.00 34 1006.5
20260508162210 68 70 0.0 3.0 0.00 0.00 0.00 34 1006.5
20260508161710 67 69 0.0 1.0 0.00 0.00 0.00 35 1006.4
20260508161210 67 69 0.0 3.0 0.00 0.00 0.00 32 1006.5
20260508160710 67 69 0.0 2.0 0.00 0.00 0.00 36 1006.4
20260508160210 67 69 0.0 0.0 0.00 0.00 0.00 34 1006.4
20260508155710 67 69 0.0 0.0 0.00 0.00 0.00 35 1006.4
20260508155210 67 69 0.0 0.0 0.00 0.00 0.00 34 1006.3
20260508154710 67 69 0.0 1.0 0.00 0.00 0.00 36 1006.4
20260508154210 67 69 0.0 1.0 0.00 0.00 0.00 36 1006.4
20260508153710 67 69 0.0 0.0 0.00 0.00 0.00 36 1006.4
20260508153210 67 69 0.0 0.0 0.00 0.00 0.00 37 1006.4
20260508152710 67 69 0.0 0.0 0.00 0.00 0.00 38 1006.4
20260508152210 67 69 0.0 0.0 0.00 0.00 0.00 34 1006.3
20260508151710 67 69 0.0 0.0 0.00 0.00 0.00 37 1006.3
20260508151210 67 69 0.0 0.0 0.00 0.00 0.00 37 1006.3
20260508150710 67 69 0.0 0.0 0.00 0.00 0.00 37 1006.3
20260508150210 67 69 0.0 0.0 0.00 0.00 0.00 37 1006.2
20260508145710 67 69 0.0 0.0 0.00 0.00 0.00 39 1006.3
20260508145210 67 69 0.0 0.0 0.00 0.00 0.00 37 1006.3
20260508144710 67 69 0.0 0.0 0.00 0.00 0.00 37 1006.3
20260508144210 67 69 0.0 0.0 0.00 0.00 0.00 38 1006.3
20260508143710 66 69 0.0 0.0 0.00 0.00 0.00 36 1006.3
20260508143210 66 69 0.0 0.0 0.00 0.00 0.00 34 1006.2
20260508142710 65 69 0.0 0.0 0.00 0.00 0.00 36 1006.2
20260508142210 65 69 0.0 0.0 0.00 0.00 0.00 35 1006.2
20260508141710 65 69 0.0 0.0 0.00 0.00 0.00 36 1006.2
20260508141210 64 69 0.0 0.0 0.00 0.00 0.00 38 1006.2
20260508140710 63 69 0.0 0.0 0.00 0.00 0.00 41 1006.2
20260508140210 61 69 0.0 0.0 0.00 0.00 0.00 42 1006.2
20260508135710 60 69 0.0 0.0 0.00 0.00 0.00 45 1006.2
20260508135210 59 69 0.0 0.0 0.00 0.00 0.00 46 1006.3
20260508134710 58 69 0.0 0.0 0.00 0.00 0.00 52 1006.2
20260508134210 57 69 0.0 0.0 0.00 0.00 0.00 51 1006.1
20260508133712 57 69 0.0 0.0 0.00 0.00 0.00 51 1006.1
20260508133210 56 69 0.0 0.0 0.00 0.00 0.00 49 1006.1
20260508132710 55 69 0.0 0.0 0.00 0.00 0.00 49 1006.0
20260508132210 55 69 0.0 0.0 0.00 0.00 0.00 50 1006.1
20260508131710 54 69 0.0 0.0 0.00 0.00 0.00 50 1006.0
20260508131210 54 69 0.0 0.0 0.00 0.00 0.00 52 1006.1
20260508130710 54 69 0.0 0.0 0.00 0.00 0.00 52 1006.0
20260508130210 54 69 0.0 0.0 0.00 0.00 0.00 52 1005.9
20260508125710 54 69 0.0 0.0 0.00 0.00 0.00 52 1005.9
20260508125210 53 69 0.0 0.0 0.00 0.00 0.00 52 1005.8
20260508124710 53 69 0.0 0.0 0.00 0.00 0.00 52 1005.7
20260508124210 53 69 0.0 0.0 0.00 0.00 0.00 51 1005.6
20260508123710 53 69 0.0 0.0 0.00 0.00 0.00 51 1005.6
20260508123210 53 69 0.0 0.0 0.00 0.00 0.00 51 1005.5
20260508122710 53 69 0.0 0.0 0.00 0.00 0.00 50 1005.5
20260508122210 53 69 0.0 0.0 0.00 0.00 0.00 51 1005.5
20260508121710 53 69 0.0 0.0 0.00 0.00 0.00 51 1005.5
20260508121210 53 69 0.0 0.0 0.00 0.00 0.00 50 1005.4
20260508120710 53 69 0.0 0.0 0.00 0.00 0.00 51 1005.4
20260508120210 53 69 0.0 0.0 0.00 0.00 0.00 53 1005.4
20260508115710 53 69 0.0 0.0 0.00 0.00 0.00 56 1005.4
20260508115210 53 69 0.0 0.0 0.00 0.00 0.00 53 1005.4
20260508114710 53 69 0.0 0.0 0.00 0.00 0.00 53 1005.3
20260508114210 53 69 0.0 0.0 0.00 0.00 0.00 51 1005.4
20260508113710 53 69 0.0 0.0 0.00 0.00 0.00 51 1005.4
20260508113210 53 69 0.0 0.0 0.00 0.00 0.00 52 1005.4
20260508112710 53 69 0.0 0.0 0.00 0.00 0.00 49 1005.4
20260508112210 54 69 0.0 0.0 0.00 0.00 0.00 49 1005.3
20260508111710 54 69 0.0 0.0 0.00 0.00 0.00 48 1005.2
20260508111210 54 69 0.0 0.0 0.00 0.00 0.00 48 1005.1
20260508110710 54 69 0.0 0.0 0.00 0.00 0.00 50 1005.1
20260508110210 55 69 0.0 0.0 0.00 0.00 0.00 51 1005.0
20260508105710 55 69 0.0 0.0 0.00 0.00 0.00 47 1005.0
20260508105210 55 69 0.0 0.0 0.00 0.00 0.00 47 1005.0
20260508104710 55 69 0.0 0.0 0.00 0.00 0.00 47 1005.0
20260508104210 55 69 0.0 0.0 0.00 0.00 0.00 49 1005.0
20260508103710 55 69 0.0 0.0 0.00 0.00 0.00 47 1005.1
20260508103210 56 69 0.0 0.0 0.00 0.00 0.00 46 1005.0
20260508102710 56 69 0.0 0.0 0.00 0.00 0.00 45 1005.1
20260508102210 56 69 0.0 0.0 0.00 0.00 0.00 45 1005.0
20260508101710 56 69 0.0 0.0 0.00 0.00 0.00 44 1005.0
20260508101210 56 69 0.0 0.0 0.00 0.00 0.00 43 1005.0
20260508100710 56 69 0.0 0.0 0.00 0.00 0.00 43 1004.9
20260508100211 56 69 0.0 0.0 0.00 0.00 0.00 43 1005.0
20260508095710 56 69 0.0 0.0 0.00 0.00 0.00 42 1004.9
20260508095210 56 69 0.0 0.0 0.00 0.00 0.00 42 1004.9
20260508094710 56 69 0.0 0.0 0.00 0.00 0.00 41 1004.9
20260508094210 56 69 0.0 0.0 0.00 0.00 0.00 41 1004.9
20260508093710 56 69 0.0 0.0 0.00 0.00 0.00 40 1004.8
20260508093210 56 69 0.0 0.0 0.00 0.00 0.00 41 1004.8
20260508092711 56 69 0.0 0.0 0.00 0.00 0.00 41 1004.9
20260508092211 56 69 0.0 0.0 0.00 0.00 0.00 42 1004.8
20260508091711 56 69 0.0 0.0 0.00 0.00 0.00 42 1004.8
20260508091211 56 69 0.0 0.0 0.00 0.00 0.00 42 1004.9
20260508090711 55 69 0.0 0.0 0.00 0.00 0.00 44 1004.9
20260508090211 55 69 0.0 0.0 0.00 0.00 0.00 44 1004.8
20260508085711 56 69 0.0 0.0 0.00 0.00 0.00 43 1004.8
20260508085211 56 69 0.0 0.0 0.00 0.00 0.00 42 1004.8
20260508084711 56 69 0.0 0.0 0.00 0.00 0.00 43 1004.8
20260508084211 56 69 0.0 0.0 0.00 0.00 0.00 42 1004.8
20260508083711 56 69 0.0 0.0 0.00 0.00 0.00 43 1004.8
20260508083211 57 69 0.0 0.0 0.00 0.00 0.00 42 1004.8
20260508082711 57 69 0.0 0.0 0.00 0.00 0.00 42 1004.8
20260508082211 56 69 0.0 0.0 0.00 0.00 0.00 42 1004.9
20260508081711 57 69 0.0 0.0 0.00 0.00 0.00 43 1004.9
20260508081211 57 69 0.0 0.0 0.00 0.00 0.00 41 1004.9
20260508080711 57 69 0.0 0.0 0.00 0.00 0.00 41 1005.0
20260508080211 57 69 0.0 0.0 0.00 0.00 0.00 41 1005.0
20260508075711 58 69 0.0 0.0 0.00 0.00 0.00 40 1005.1
20260508075211 58 69 0.0 0.0 0.00 0.00 0.00 39 1005.0
20260508074711 58 69 0.0 0.0 0.00 0.00 0.00 40 1005.1
20260508074211 58 69 0.0 0.0 0.00 0.00 0.00 40 1005.1
20260508073711 58 69 0.0 0.0 0.00 0.00 0.00 40 1005.0
20260508073211 58 69 0.0 0.0 0.00 0.00 0.00 40 1005.1
20260508072711 58 69 0.0 0.0 0.00 0.00 0.00 40 1005.0
20260508072211 58 69 0.0 0.0 0.00 0.00 0.00 40 1005.0
20260508071711 58 69 0.0 0.0 0.00 0.00 0.00 40 1004.9
20260508071211 58 69 0.0 0.0 0.00 0.00 0.00 40 1005.0
20260508070711 58 69 0.0 0.0 0.00 0.00 0.00 39 1005.1
20260508070211 58 69 0.0 0.0 0.00 0.00 0.00 39 1005.1
20260508065711 59 69 0.0 0.0 0.00 0.00 0.00 38 1005.1
20260508065211 58 69 0.0 0.0 0.00 0.00 0.00 39 1005.1
20260508064711 58 69 0.0 0.0 0.00 0.00 0.00 39 1005.0
20260508064211 58 69 0.0 0.0 0.00 0.00 0.00 40 1005.0
20260508063711 58 69 0.0 0.0 0.00 0.00 0.00 40 1005.1
20260508063211 58 69 0.0 0.0 0.00 0.00 0.00 40 1005.0
20260508062711 58 69 0.0 0.0 0.00 0.00 0.00 39 1004.9
20260508062211 58 69 0.0 0.0 0.00 0.00 0.00 40 1004.9
20260508061711 58 69 0.0 0.0 0.00 0.00 0.00 40 1004.8
20260508061211 58 69 0.0 0.0 0.00 0.00 0.00 40 1004.8
20260508060711 59 69 0.0 0.0 0.00 0.00 0.00 39 1004.8
20260508060211 59 69 0.0 0.0 0.00 0.00 0.00 38 1004.8
20260508055711 59 69 0.0 0.0 0.00 0.00 0.00 38 1004.7
20260508055211 59 69 0.0 0.0 0.00 0.00 0.00 39 1004.6
20260508054711 60 69 0.0 0.0 0.00 0.00 0.00 38 1004.7
20260508054211 60 69 0.0 0.0 0.00 0.00 0.00 37 1004.7
20260508053711 60 69 0.0 0.0 0.00 0.00 0.00 36 1004.6
20260508053211 60 69 0.0 0.0 0.00 0.00 0.00 36 1004.7
20260508052711 60 69 0.0 0.0 0.00 0.00 0.00 36 1004.7
20260508052211 60 69 0.0 0.0 0.00 0.00 0.00 36 1004.7
20260508051711 60 69 0.0 0.0 0.00 0.00 0.00 36 1004.8
20260508051211 60 69 0.0 0.0 0.00 0.00 0.00 36 1004.8
20260508050711 60 69 0.0 0.0 0.00 0.00 0.00 36 1004.7
20260508050211 60 69 0.0 0.0 0.00 0.00 0.00 37 1004.9
20260508045711 60 69 0.0 0.0 0.00 0.00 0.00 36 1004.8
20260508045211 60 69 0.0 0.0 0.00 0.00 0.00 37 1004.8
20260508044711 60 69 0.0 0.0 0.00 0.00 0.00 36 1004.8
20260508044211 60 69 0.0 0.0 0.00 0.00 0.00 36 1004.8
20260508043711 60 69 0.0 0.0 0.00 0.00 0.00 37 1004.9
20260508043211 60 69 0.0 0.0 0.00 0.00 0.00 36 1004.9
20260508042711 60 69 0.0 0.0 0.00 0.00 0.00 36 1004.9
20260508042211 61 69 0.0 0.0 0.00 0.00 0.00 36 1004.9
20260508041711 60 69 0.0 0.0 0.00 0.00 0.00 36 1004.9
20260508041211 61 69 0.0 0.0 0.00 0.00 0.00 36 1005.0
20260508040711 60 69 0.0 0.0 0.00 0.00 0.00 36 1005.0
20260508040211 60 69 0.0 0.0 0.00 0.00 0.00 36 1004.9
20260508035711 61 69 0.0 0.0 0.00 0.00 0.00 36 1004.9
20260508035211 61 69 0.0 0.0 0.00 0.00 0.00 36 1004.8
20260508034711 61 69 0.0 0.0 0.00 0.00 0.00 35 1004.8
20260508034211 61 69 0.0 0.0 0.00 0.00 0.00 36 1004.9
20260508033711 61 69 0.0 0.0 0.00 0.00 0.00 35 1004.8
20260508033211 61 69 0.0 0.0 0.00 0.00 0.00 35 1004.8
20260508032711 62 69 0.0 0.0 0.00 0.00 0.00 35 1004.8
20260508032211 62 69 0.0 0.0 0.00 0.00 0.00 35 1004.7
20260508031711 62 69 0.0 0.0 0.00 0.00 0.00 35 1004.6
20260508031211 62 69 0.0 0.0 0.00 0.00 0.00 34 1004.6
20260508030711 63 69 0.0 0.0 0.00 0.00 0.00 34 1004.6
20260508030211 64 69 0.0 0.0 0.00 0.00 0.00 34 1004.6
20260508025711 64 69 0.0 0.0 0.00 0.00 0.00 33 1004.6
20260508025211 64 69 0.0 0.0 0.00 0.00 0.00 33 1004.6
20260508024711 64 69 0.0 0.0 0.00 0.00 0.00 32 1004.6
20260508024211 65 69 0.0 0.0 0.00 0.00 0.00 32 1004.5
20260508023712 65 69 0.0 0.0 0.00 0.00 0.00 31 1004.5
20260508023211 65 69 0.0 0.0 0.00 0.00 0.00 31 1004.3
20260508022711 65 69 0.0 0.0 0.00 0.00 0.00 31 1004.4
20260508022211 66 69 0.0 0.0 0.00 0.00 0.00 32 1004.4
20260508021711 66 69 0.0 0.0 0.00 0.00 0.00 32 1004.4
20260508021211 66 69 0.0 0.0 0.00 0.00 0.00 31 1004.3
20260508020711 67 69 0.0 0.0 0.00 0.00 0.00 31 1004.3
20260508020211 67 69 0.0 0.0 0.00 0.00 0.00 31 1004.3
20260508015711 68 69 0.0 0.0 0.00 0.00 0.00 31 1004.3
20260508015211 69 69 0.0 0.0 0.00 0.00 0.00 30 1004.3
20260508014711 70 69 0.0 0.0 0.00 0.00 0.00 33 1004.3
20260508014211 70 69 0.0 0.0 0.00 0.00 0.00 28 1004.4
20260508013711 70 69 0.0 0.0 0.00 0.00 0.00 30 1004.3
20260508013211 70 69 0.0 0.0 0.00 0.00 0.00 29 1004.4
20260508012711 70 69 0.0 0.0 0.00 0.00 0.00 27 1004.4
20260508012211 70 69 0.0 0.0 0.00 0.00 0.00 28 1004.4
20260508011711 70 69 0.0 0.0 0.00 0.00 0.00 27 1004.4
20260508011211 70 69 0.0 0.0 0.00 0.00 0.00 27 1004.5
20260508010711 70 69 0.0 0.0 0.00 0.00 0.00 28 1004.4
20260508010211 70 69 0.0 0.0 0.00 0.00 0.00 27 1004.5
20260508005711 70 69 0.0 0.0 0.00 0.00 0.00 26 1004.6
20260508005211 70 69 0.0 0.0 0.00 0.00 0.00 26 1004.6
20260508004711 71 69 0.0 0.0 0.00 0.00 0.00 27 1004.6
20260508004211 71 69 0.0 0.0 0.00 0.00 0.00 27 1004.8
20260508003711 71 69 0.0 0.0 0.00 0.00 0.00 25 1004.8
20260508003211 71 69 0.0 0.0 0.00 0.00 0.00 26 1004.7
20260508002711 72 69 0.0 0.0 0.00 0.00 0.00 26 1004.7
20260508002211 72 69 0.0 0.0 0.00 0.00 0.00 25 1004.9
20260508001711 73 69 0.0 0.0 0.00 0.00 0.00 25 1004.9
20260508001211 73 69 0.0 0.0 0.00 0.00 0.00 24 1005.0
20260508000711 73 69 0.0 0.0 0.00 0.00 0.00 23 1004.9
20260508000212 73 69 0.0 0.0 0.00 0.00 0.00 25 1005.0